Weather History for Mobridge, SD

Change the Weather History Date:

Friday, January 10, 2014

  Actual Average Record
Temperature  
Mean Temperature 25 °F 16 °F  
Max Temperature 37 °F 25 °F 58 °F (1990)
Min Temperature 13 °F 6 °F -28 °F (1982)
Degree Days  
Heating Degree Days 40 49  
Month to date heating degree days 584 490  
Since 1 July heating degree days 4082 3706  
Cooling Degree Days 0 0  
Month to date cooling degree days 0 0  
Year to date cooling degree days 0 0  
Moisture  
Dew Point 17 °F    
Average Humidity 76    
Maximum Humidity 96    
Minimum Humidity 56    
Precipitation  
Precipitation 0.00 in 0.01 in 0.40 in (1913)
Month to date precipitation 0.05 0.12  
Year to date precipitation 0.05 0.12  
Snow  
Snow 0.00 in - - ()
Month to date snowfall 1.9  
Since 1 July snowfall 19.9  
Snow Depth 5.00 in    
Sea Level Pressure  
Sea Level Pressure 29.59 in    
Wind  
Wind Speed 4 mph (NNW)    
Max Wind Speed 12 mph    
Max Gust Speed 15 mph    
Visibility 10 miles    
Events      
T = Trace of Precipitation, MM = Missing Value Source: NWS Daily Summary

Daily Weather History Graph

Daily Weather History Graph

Search for Another Location

Airport:

Trip Planner

Search our weather history database for the weather conditions in past years. The results will help you decide how hot, cold, wet, or windy it might be!

Date:

Astronomy

Jan. 10, 2014 Rise Set
Actual Time 8:20 AM CST 5:18 PM CST
Civil Twilight 7:46 AM CST 5:51 PM CST
Nautical Twilight 7:09 AM CST 6:28 PM CST
Astronomical Twilight 6:34 AM CST 7:04 PM CST
Moon 1:27 PM CST (1/10) 3:24 AM CST (1/10)
Length of Visible Light 10h 05m
Length of Day
8h 58m
Waxing Gibbous, 75% of the Moon is Illuminated
Jan 10
Waxing Gibbous
Jan 15
Full
Jan 23
Last Quarter
Jan 30
New
Feb 6
First Quarter

Hourly Weather History & Observations

Time (CST) Temp. Windchill Dew Point Humidity Pressure Visibility Wind Dir Wind Speed Gust Speed Precip Events Conditions
12:52 AM 17.1 °F 10.0 °F 15.1 °F 92% 29.60 in 9.0 mi North 4.6 mph - N/A   Mostly Cloudy
1:52 AM 19.0 °F 13.9 °F 17.1 °F 92% 29.58 in 9.0 mi NNE 3.5 mph - N/A   Scattered Clouds
2:52 AM 17.1 °F - 12.9 °F 84% 29.60 in 6.0 mi Calm Calm - N/A   Clear
3:52 AM 14.0 °F - 12.9 °F 95% 29.60 in 7.0 mi Calm Calm - N/A   Scattered Clouds
4:52 AM 17.1 °F - 14.0 °F 88% 29.59 in 10.0 mi Calm Calm - N/A   Mostly Cloudy
5:52 AM 17.1 °F 11.7 °F 14.0 °F 88% 29.59 in 10.0 mi SE 3.5 mph - N/A   Mostly Cloudy
6:52 AM 17.1 °F 7.6 °F 14.0 °F 88% 29.60 in 10.0 mi ESE 6.9 mph - N/A   Partly Cloudy
7:52 AM 15.1 °F - 12.9 °F 91% 29.61 in 10.0 mi Calm Calm - N/A   Clear
8:52 AM 15.1 °F - 14.0 °F 95% 29.61 in 10.0 mi Calm Calm - N/A   Clear
9:52 AM 21.0 °F - 19.0 °F 92% 29.61 in 10.0 mi Calm Calm - N/A   Clear
10:52 AM 27.0 °F 21.6 °F 21.0 °F 78% 29.61 in 10.0 mi NNW 4.6 mph - N/A   Clear
11:52 AM 24.1 °F 17.0 °F 19.9 °F 84% 29.61 in 10.0 mi SSE 5.8 mph - N/A   Clear
12:52 PM 28.9 °F 22.8 °F 21.9 °F 75% 29.58 in 10.0 mi SSE 5.8 mph - N/A   Clear
1:52 PM 34.0 °F - 24.1 °F 67% 29.56 in 10.0 mi Calm Calm - N/A   Clear
2:52 PM 36.0 °F 29.0 °F 21.0 °F 55% 29.55 in 10.0 mi WNW 9.2 mph - N/A   Clear
3:52 PM 35.1 °F 30.1 °F 21.0 °F 57% 29.57 in 10.0 mi West 5.8 mph - N/A   Clear
4:52 PM 32.0 °F 26.4 °F 19.9 °F 61% 29.57 in 10.0 mi West 5.8 mph - N/A   Clear
5:52 PM 26.1 °F - 18.0 °F 71% 29.58 in 10.0 mi Calm Calm - N/A   Clear
6:52 PM 25.0 °F - 18.0 °F 75% 29.58 in 10.0 mi Calm Calm - N/A   Clear
7:52 PM 19.0 °F 12.3 °F 14.0 °F 81% 29.59 in 10.0 mi North 4.6 mph - N/A   Clear
8:52 PM 19.0 °F 11.1 °F 16.0 °F 88% 29.59 in 10.0 mi NNW 5.8 mph - N/A   Clear
9:52 PM 23.0 °F 13.1 °F 17.1 °F 78% 29.60 in 10.0 mi NW 9.2 mph - N/A   Clear
10:52 PM 21.0 °F 11.4 °F 17.1 °F 85% 29.61 in 10.0 mi NW 8.1 mph - N/A   Clear
11:52 PM 23.0 °F 11.7 °F 18.0 °F 81% 29.62 in 10.0 mi NW 11.5 mph - N/A   Clear